Location: St Paul
(33.9360°N, 83.4200°W)
Time: 20:24:14
(UTC-04:00)

Centaur D AC-29 - Pass Details

Date: 06 October 2017
Orbit: 550 x 36289 km, 26.2° (Epoch: 17 October)

Event Time Altitude Azimuth Distance (km) Brightness Sun altitude
Rises 19:03:26 0° 249° (WSW) 17,554 10.4 0.7°
Reaches altitude 10° 19:29:06 10° 247° (WSW) 9,882 8.6 -4.6°
Maximum altitude 19:49:57 44° 182° (S) 1,918 3.6 -8.9°
Enters shadow 19:54:32 11° 109° (ESE) 2,339 3.4 -9.9°
